Погода в Рассвете

Россия / Тюменская область     56°32′14″N   65°44′03″E
темп.,
°C
ветер,
м/с
пор.,
м/с
влажн.,
%
обл.,
%
осадки,
мм/ч
давл.,
гПа
погр.,
м
21 апреля, ср
ср2123:00+3зсз48615 0.0 1026114
02:00+2сз410695 0.0 1026158
05:000ссз36805 0.0 102891
08:00+5с35705 0.0 1030302
11:00+9с355631 0.0 10311228
14:00+10с4547100 0.0 10311799
17:00+10с444993 0.0 10321518
20:00+8всв356173 0.0 1034101
22 апреля, чт
чт2223:00+5всв22685 0.0 103510
02:00+3юв36715 0.0 1036113
05:00+2юв36715 0.0 1038104
08:00+5ююв58595 0.0 1039354
11:00+10ююв67465 0.0 1038939
14:00+13ю674299 0.0 10371734
17:00+14ю6741100 0.0 10371792
20:00+10ююв61254100 0.0 1037359
23 апреля, пт
пт2323:00+8ююв61453100 0.0 1037443
02:00+6ююв61354100 0.0 1036337
05:00+5ююв41062100 0.0 1036225
08:00+8ю51161100 0.0 1036384
11:00+12ю6847100 0.0 1035827
14:00+12ю6945100 0.0 1035967
17:00+13ю683999 0.0 10341648
20:00+10ююв494999 0.0 1033218
24 апреля, сб
сб2423:00+8ююв41150100 0.0 1033294
02:00+7ююв4956100 0.0 1031224
05:00+6ююв3559100 0.0 1030121
08:00+7ююв3459100 0.0 1030169
11:00+10юв4645100 0.0 1029603
14:00+10ююв4851100 0.0 10281481
17:00+12ююв5740100 0.0 10261663
20:00+9юв51050100 0.0 1026371
25 апреля, вс
вс2523:00+8юв51152100 0.0 1024418
02:00+7вюв41056100 0.0 1022285
05:00+6вюв41059100 0.0 1021280
08:00+7вюв5961100 0.0 1019536
11:00+12юв684084 0.0 10171347
14:00+15ююв6830100 0.0 10141910
17:00+15ю673199 0.0 10132425
20:00+10ююз486667 0.0 1014280